www.pogodaiklimat.ru
ПОГОДА в Аэропорту Ханга Надима
Время
(UTC), дата
18 7.11
21 7.11
00 8.11
03 8.11
06 8.11
09 8.11
12 8.11
15 8.11
18 8.11
21 8.11
00 9.11
03 9.11
06 9.11
09 9.11
12 9.11
15 9.11
18 9.11
21 9.11
00 10.11
03 10.11
06 10.11
09 10.11
12 10.11
15 10.11
18 10.11
21 10.11
00 11.11
03 11.11
06 11.11
09 11.11
12 11.11
15 11.11
18 11.11
21 11.11
00 12.11
03 12.11
06 12.11
09 12.11
12 12.11
15 12.11
18 12.11
21 12.11
00 13.11
03 13.11
06 13.11
09 13.11
12 13.11
15 13.11
18 13.11
21 13.11
00 14.11
03 14.11
06 14.11
09 14.11
12 14.11
15 14.11
Ветер
(напр.,м/с)
Видим. Явления Облачность Т
(С)
Тd
(С)
f
(%)
Тe
(С)
Тes
(С)
Комфортность P
(гПа)
Po
(гПа)
Тmin
(С)
Tmax
(С)
R
(мм)
R24
(мм)
S
(см)
штиль 0 10 км 9/3 420 м
[Sc Ac As Cs]
+27.8 +25.0 85 +40 +40 очень
душно
1011.7 1007.2
В 2 10 км 9/3 420 м
[Sc Ac As Cs]
+26.5 +25.2 93 +38 +38 очень
душно
1011.1 1006.6
штиль 0 10 км 9/1 420 м
[Sc Ac As Cs]
+27.3 +25.0 87 +39 +40 очень
душно
1014.2 1009.7 +26.0
З 5 10 км 9/6 420 м
[Sc As op Ci fib]
+26.3 +22.6 80 +35 +37 очень
душно
1016.5 1012.0
З 2 10 км 9/3 420 м
[Sc Ac As Ci fib]
+29.0 +21.8 65 +37 +45 очень
душно
1013.0 1008.5
З 2 10 км 9/1 420 м
[Sc Ac As Cs]
+29.9 +19.8 55 +36 +39 очень
душно
1011.2 1006.7
З 2 10 км 9/1 420 м
[Sc Ac As Cs]
+28.2 +21.7 68 +36 +36 очень
душно
1013.2 1008.7 +31.0
штиль 0 10 км 10/1 420 м
[Sc Ac As Cs]
+27.0 +23.5 81 +37 +37 очень
душно
1014.6 1010.1
штиль 0 10 км 10/1 420 м
[Sc Ac As Cs]
+26.4 +23.2 83 +36 +36 очень
душно
1013.3 1008.8
штиль 0 10 км 10/1 420 м
[Sc Ac As Cs]
+25.6 +24.2 92 +35 +35 очень
душно
1012.2 1007.7
штиль 0 10 км 9/1 420 м
[Sc Ac As Cs]
+27.0 +24.9 88 +39 +39 очень
душно
1014.0 1009.5 +25.2
СЗ 2 10 км 9/4 420 м
[Cu med, cong Ac As Cs]
+31.0 +23.9 66 +43 +48 опасность
перегрева
1015.0 1010.5
З 2 10 км 9/6 420 м
[Cu med, cong Ac As Cs]
+32.4 +23.1 58 +43 +47 опасность
перегрева
1012.1 1007.6
С 1 10 км 9/1 420 м
[Sc Ci fib]
+32.2 +23.2 59 +43 +47 опасность
перегрева
1010.4 1005.9
СВ 2 10 км 9/1 420 м
[Sc Cs]
+28.2 +24.2 79 +39 +39 очень
душно
1012.2 1007.7 +32.9
штиль 0 10 км 9/1 420 м
[Sc As trans Cs]
+26.9 +24.6 87 +38 +38 очень
душно
1014.3 1009.8
штиль 0 10 км 9/1 420 м
[Sc As trans Cs]
+26.3 +24.6 90 +37 +37 очень
душно
1013.0 1008.5
З 2 10 км 9/1 420 м
[Sc As trans Cs]
+25.8 +22.9 84 +34 +34 очень
душно
1012.6 1008.1
штиль 0 10 км 9/1 420 м
[Sc Cs]
+25.6 +23.6 89 +35 +36 очень
душно
1012.6 1008.1 +24.4
СЗ 2 10 км 9/4 420 м
[Cu hum Cs]
+30.4 +23.4 66 +41 +48 опасность
перегрева
1013.8 1009.3
СВ 2 10 км 9/3 420 м
[Cu hum Cs]
+33.6 +23.2 55 +44 +55 опасность
перегрева
1010.7 1006.2
В 2 10 км 9/3 420 м
[Cu hum Cs]
+31.6 +22.8 60 +42 +45 опасность
перегрева
1008.6 1004.1
штиль 0 10 км 8/1 420 м
[Sc Cs]
+29.1 +23.3 71 +39 +39 очень
душно
1010.4 1005.9 +34.2
штиль 0 10 км 8/1 420 м
[Sc As trans Cs]
+27.1 +23.9 83 +37 +37 очень
душно
1012.4 1007.9
штиль 0 10 км 8/1 420 м
[Sc As trans Cs]
+26.1 +24.4 90 +36 +36 очень
душно
1011.3 1006.8
штиль 0 10 км 8/1 420 м
[Sc As trans Cs]
+25.5 +24.4 94 +36 +36 очень
душно
1009.8 1005.3
штиль 0 7000 м 9/1 420 м
[Sc Ac trans Cs]
+26.8 +25.1 90 +39 +39 очень
душно
1012.0 1007.5 +25.2
ЮЗ 1 10 км 8/1 420 м
[Sc As trans Cs]
+31.2 +23.2 63 +42 +51 опасность
перегрева
1012.6 1008.1
З 2 10 км 8/1 420 м
[Sc As trans Cs]
+30.3 +23.9 69 +42 +53 опасность
перегрева
1010.3 1005.8
штиль 0 10 км в посл. час гроза 10/3 420 м
[Sc diur, vesp As trans Cs]
+28.3 +23.9 77 +39 +41 очень
душно
1009.1 1004.6
штиль 0 10 км в посл. час гроза 9/3 420 м
[Sc diur, vesp As trans Cs]
+27.6 +24.0 81 +38 +38 очень
душно
1010.8 1006.3 +32.8
штиль 0 10 км 10/1 420 м
[Sc diur, vesp Cs]
+26.3 +24.3 89 +37 +37 очень
душно
1012.2 1007.7
штиль 0 10 км 9/1 420 м
[Sc diur, vesp Cs]
+25.4 +23.7 90 +35 +35 очень
душно
1011.2 1006.7
штиль 0 10 км 9/1 420 м
[Sc diur, vesp Cs]
+24.9 +24.0 95 +34 +34 очень
душно
1010.7 1006.2
штиль 0 6000 м 10/3 420 м
[Sc diur, vesp Cs]
+25.6 +25.0 96 +36 +37 очень
душно
1012.3 1007.8 +24.6
ЮВ 2 10 км 10/3 420 м
[Cu hum As trans Cs]
+30.2 +24.7 72 +43 +48 опасность
перегрева
1013.3 1008.8
СВ 2 9000 м в посл. час гроза 10/3 420 м
[Cu hum As trans Cs]
+31.5 +24.9 68 +45 +52 опасность
перегрева
1011.2 1006.7
штиль 0 9000 м в посл. час гроза 9/1 420 м
[Sc As trans Cs]
+28.6 +23.6 74 +39 +42 очень
душно
1010.3 1005.8
штиль 0 7000 м {гроза} 9/1 420 м
[Sc As trans Cs]
+26.9 +24.3 86 +38 +38 очень
душно
1011.7 1007.2 +32.3
штиль 0 10 км 9/1 420 м
[Sc Cs]
+26.2 +24.2 89 +36 +36 очень
душно
1013.7 1009.2
штиль 0 7000 м 9/1 420 м
[Sc Cs]
+26.1 +25.0 94 +37 +37 очень
душно
1012.5 1008.0
штиль 0 7000 м 9/1 420 м
[Sc Cs]
+25.4 +24.5 95 +36 +36 очень
душно
1011.9 1007.4
штиль 0 3000 м мгла {туман} 9/1 420 м
[Sc As trans Cs]
+26.4 +25.7 96 +39 +40 очень
душно
1013.3 1008.8 +24.7
СВ 3 9000 м {туман} 9/5 420 м
[Sc As trans Cs]
+31.4 +24.0 65 +43 +47 опасность
перегрева
1013.6 1009.1
В 3 10 км {туман} 9/4 420 м
[Sc As trans Cs]
+32.0 +22.4 57 +41 +47 опасность
перегрева
1011.2 1006.7
В 2 10 км 9/5 420 м
[Sc As trans Cs]
+30.5 +23.3 65 +41 +42 опасность
перегрева
1009.9 1005.4
штиль 0 10 км 8/3 420 м
[Sc As trans Cs]
+29.2 +24.7 77 +42 +42 опасность
перегрева
1011.8 1007.3 +33.2
штиль 0 10 км 8/3 420 м
[Sc As trans Cs]
+28.7 +24.6 79 +41 +41 опасность
перегрева
1013.7 1009.2
СВ 4 10 км слаб. дождь 8/3 420 м
[Cu med, cong As trans Cs]
+27.9 +24.0 79 +39 +39 очень
душно
1012.4 1007.9 0.0
СВ 2 10 км {дождь} 8/3 420 м
[Cu med, cong As trans Cs]
+25.3 +24.1 93 +35 +35 очень
душно
1011.2 1006.7 0.0
штиль 0 10 км {дождь} 9/1 420 м
[Sc As trans Cs]
+26.5 +24.2 87 +37 +38 очень
душно
1013.6 1009.1 +24.4 5
СВ 2 5000 м гроза, ливневой дождь 10/6 300 м
[Cb calv As op]
+24.8 +24.2 96 +34 +35 очень
душно
1015.0 1010.5 5
В 2 10 км {гроза, дождь} 9/5 420 м
[Sc As op Cs]
+27.5 +24.5 84 +39 +45 очень
душно
1012.2 1007.7 2
СВ 2 10 км 9/4 420 м
[Sc Cs]
+29.0 +24.0 74 +40 +43 очень
душно
1009.5 1005.0
СВ 1 10 км 9/4 420 м
[Sc Ac trans Cs]
+28.0 +23.8 78 +39 +39 очень
душно
1011.7 1007.2 +31.5
штиль 0 10 км гроза без осадков 9/4 420 м
[Cb calv Ac As Cs]
+26.2 +25.4 95 +38 +38 очень
душно
1013.6 1009.1 4
Местоположение метеостанции Аэропорт Ханга Надима (Индонезия): широта 1.12 долгота 104.11 высота над уровнем моря 24 м.
В архиве по умолчанию представлена погода в Аэропорту Ханга Надима за последнюю неделю. Архивные данные за месяц целиком и за предыдущие месяцы, начиная с января 2011 года, Вы можете получить, выбрав интересующий диапазон дат из раскрывающегося списка и нажав кнопку "Найти!".
*Определитесь, кто Вы:
Внимание! Время в таблицах - всемирное. Для получения местного времени необходимо прибавить поправку, которая равна 7 ч.
Смотрите также архив погоды в соседних городах и на ближайших метеорологических станциях:
Партнеры нашего сайта:      
Пояснения к столбцам:
  • Ветер - указаны скорость ветра в м/с - средняя за 10 мин, порывы в срок и между сроками (в фигурных скобках) и направление, откуда дует ветер: С - северный,
  • СВ - северо-восточный, В - восточный, ЮВ - юго-восточный, Ю - южный, ЮЗ - юго-западный, З - западный, СЗ - северо-западный.
  • Видимость - горизонтальная дальность видимости в метрах или километрах. При видимости от 1 до 10 км при отсутствии осадков обычно наблюдается дымка, при ухудшении видимости до 1 км и менее - туман. В сухую погоду видимость может ухудшаться дымом, пылью или мглою.
  • Явления - указаны атмосферные явления, наблюдавшиеся в срок или в последний час перед сроком; фигурными скобками обозначены явления, наблюдавшиеся между сроками (за 1-3 часа до срока); квадратными скобками обозначены град или гололедные отложения с указанием их диаметра в мм.
  • Облачность - указаны через наклонную черту общая и нижняя облачность в баллах и высота нижней границы облаков в метрах; квадратными скобками обозначены формы облаков: Ci - перистые, Cs - перисто-слоистые, Cc - перисто-кучевые, Ac - высококучевые, As - высокослоистые, Sc - слоисто-кучевые, Ns - слоисто-дождевые, Cu - кучевые, Cb - кучево-дождевые. Подробнее классификацию облаков см. в Атласе облаков (PDF).
  • T - Температура воздуха - температура, измеренная на высоте 2 м над землей.
  • Td - Температура точки росы - температура, при понижении до которой содержащийся в воздухе водяной пар достигнет насыщения.
  • f - Относительная влажность воздуха - влажноcть воздуха, измеренная на высоте 2 м над землей.
  • Te - Эффективная температура - температура, которую ощущает одетый по сезону человек в тени. Характеристика душности погоды. При расчете учитывается влияние влажности воздуха и скорости ветра на теплоощущения человека.
  • Tes - Эффективная температура на солнце - температура, которую ощущает человек, с поправкой на солнечный нагрев. Характеристика знойности погоды. Зависит от высоты солнца над горизонтом, облачности и скорости ветра. Ночью, в пасмурную погоду, а также при ветре 12 м/с и более поправка равна нулю.
  • P - Атмосферное давление - приведенное к уровню моря атмосферное давление.
  • Po - Атмосферное давление - измеренное на уровне метеостанции атмосферное давление.
  • Tmin - Минимальная температура - минимум температуры воздуха на высоте 2 м над землей.
  • Tmax - Максимальная температура - максимум температуры воздуха на высоте 2 м над землей.
  • R - Количество осадков - Количество выпавших осадков за период времени, мм. При наведении курсора мыши на число - период времени, за который выпало указанное количество осадков.
  • R24 - Количество осадков - Количество выпавших осадков за 24 часа, мм.
  • S - Снежный покров - Высота снежного покрова, см. При наведении курсора мыши на число - состояние снежного покрова и степень покрытия местности в баллах.